CW7164 Weather Reports


Display with metric or nautical units.
time (UTC)temp
F
wind
direction
speed
MPH
gust
MPH
rain 1hr
in
rain 24hr
in
rain mn
in
humidity
%
barometer
mb
20260505072239 57 316 1.0 2.0 0.00 0.01 0.00 48 1002.6
20260505064639 58 344 1.0 4.0 0.00 0.01 0.00 46 1002.1
20260505063739 58 316 2.0 6.0 0.00 0.02 0.00 46 1002.0
20260505062839 58 325 1.0 6.0 0.00 0.02 0.00 46 1002.0
20260505061939 58 315 1.0 4.0 0.00 0.02 0.00 47 1001.9
20260505060139 59 297 1.0 3.0 0.00 0.02 0.00 47 1001.8
20260505055239 59 332 1.0 5.0 0.00 0.02 0.00 48 1001.8
20260505054339 59 319 2.0 7.0 0.00 0.02 0.00 49 1001.8
20260505053438 58 317 1.0 5.0 0.00 0.02 0.00 54 1002.1
20260505052539 59 4 0.0 2.0 0.00 0.02 0.00 56 1001.9
20260505050739 60 40 0.0 1.0 0.00 0.02 0.00 61 1001.4
20260505041339 61 344 1.0 3.0 0.00 0.02 0.02 66 1000.8
20260505034638 61 205 0.0 2.0 0.00 0.02 0.02 71 1001.0
20260505033738 61 159 0.0 2.0 0.00 0.02 0.02 71 1000.9
20260505032838 61 157 0.0 2.0 0.00 0.02 0.02 71 1000.8
20260505031938 61 114 0.0 1.0 0.00 0.02 0.02 71 1000.8
20260505031038 61 114 1.0 2.0 0.00 0.02 0.02 71 1000.7
20260505030138 61 317 1.0 4.0 0.00 0.02 0.02 71 1000.3
20260505025238 61 316 0.0 4.0 0.00 0.02 0.02 71 1000.3
20260505024338 61 184 0.0 1.0 0.00 0.02 0.02 70 1000.1
20260505023438 62 184 0.0 1.0 0.00 0.02 0.02 71 1000.1
20260505022538 62 184 0.0 1.0 0.00 0.02 0.02 70 999.9
20260505020738 63 195 0.0 1.0 0.00 0.02 0.02 69 999.4
20260505015838 63 211 0.0 2.0 0.00 0.02 0.02 68 999.0
20260505014938 63 158 1.0 3.0 0.00 0.02 0.02 68 998.9
20260505014038 63 156 1.0 3.0 0.01 0.02 0.02 68 998.8
20260505013138 63 166 1.0 5.0 0.01 0.02 0.02 69 998.8
20260505012238 64 203 1.0 5.0 0.01 0.02 0.02 69 998.8
20260505011338 64 175 1.0 3.0 0.01 0.02 0.02 69 998.8
20260505010438 64 163 1.0 4.0 0.01 0.02 0.02 69 998.3
20260505004638 64 154 1.0 4.0 0.01 0.02 0.02 70 998.7
20260505003738 64 142 1.0 3.0 0.00 0.01 0.01 70 998.6
20260505002838 65 123 1.0 2.0 0.00 0.01 0.01 70 997.8
20260505001938 65 123 1.0 2.0 0.00 0.01 0.01 69 997.8
20260505001038 66 133 1.0 5.0 0.00 0.01 0.01 68 998.1
20260505000138 66 118 1.0 3.0 0.00 0.01 0.01 64 998.6
20260504235238 66 29 0.0 2.0 0.00 0.01 0.01 62 998.4
20260504234338 67 323 0.0 2.0 0.00 0.01 0.01 60 997.7
20260504233438 68 352 0.0 1.0 0.00 0.01 0.01 58 998.0
20260504232538 68 318 3.0 18.0 0.00 0.01 0.01 56 998.1
20260504231639 69 288 1.0 13.0 0.00 0.01 0.01 61 998.3
20260504230738 69 155 0.0 1.0 0.00 0.01 0.01 64 997.0
20260504225838 69 154 0.0 1.0 0.00 0.01 0.01 64 996.8
20260504224938 70 171 0.0 2.0 0.00 0.01 0.01 64 997.2
20260504223138 70 151 1.0 3.0 0.00 0.01 0.01 63 997.9
20260504222238 72 159 1.0 5.0 0.00 0.01 0.01 61 998.0
20260504221338 75 165 2.0 7.0 0.00 0.01 0.01 49 998.2
20260504215538 78 181 2.0 9.0 0.00 0.01 0.01 37 997.7
20260504214638 79 166 2.0 6.0 0.00 0.01 0.01 38 997.6
20260504213738 79 168 2.0 5.0 0.00 0.01 0.01 37 997.7
20260504212838 78 163 1.0 3.0 0.00 0.01 0.01 39 997.8
20260504211938 78 200 1.0 4.0 0.00 0.01 0.01 37 998.1
20260504210138 79 193 2.0 6.0 0.00 0.01 0.01 36 998.1
20260504205238 80 190 2.0 5.0 0.00 0.01 0.01 35 998.2
20260504203438 81 161 3.0 7.0 0.00 0.01 0.01 34 998.3
20260504202538 81 157 3.0 7.0 0.00 0.01 0.01 35 998.2
20260504200738 80 155 2.0 7.0 0.00 0.01 0.01 36 998.4
20260504195838 80 159 2.0 6.0 0.00 0.01 0.01 39 998.7
20260504194938 80 189 2.0 7.0 0.00 0.01 0.01 38 998.9
20260504193138 79 170 2.0 8.0 0.00 0.01 0.01 35 999.2
20260504191338 80 184 2.0 6.0 0.00 0.01 0.01 35 999.3
20260504184638 80 236 2.0 9.0 0.00 0.01 0.01 33 999.5
20260504183738 79 172 1.0 6.0 0.00 0.01 0.01 36 999.4
20260504182837 79 169 2.0 6.0 0.00 0.01 0.01 34 999.5
20260504181938 78 154 2.0 5.0 0.00 0.01 0.01 35 999.6
20260504181038 78 170 2.0 4.0 0.00 0.01 0.01 34 999.8
20260504180138 77 134 2.0 5.0 0.00 0.01 0.01 35 1000.1
20260504175238 77 174 2.0 7.0 0.00 0.01 0.01 36 1000.0
20260504174338 76 220 2.0 7.0 0.00 0.01 0.01 38 1000.1
20260504171637 75 171 2.0 6.0 0.00 0.01 0.01 36 1000.5
20260504170737 75 164 1.0 8.0 0.00 0.01 0.01 41 1000.6
20260504151037 69 144 2.0 4.0 0.00 0.01 0.01 53 1002.2
20260504140737 63 119 1.0 2.0 0.00 0.01 0.01 62 1003.0
20260504130437 54 125 1.0 3.0 0.00 0.01 0.01 70 1003.6
20260504100448 47 197 1.0 2.0 0.00 0.02 0.01 66 1004.0
20260504081647 48 0 0.0 0.0 0.00 0.02 0.01 72 1003.7
20260504080747 49 0 0.0 0.0 0.00 0.02 0.01 73 1003.8